Time,TemperatureF,DewpointF,PressureIn,WindDirection,WindDirectionDegrees,WindSpeedMPH,WindSpeedGustMPH,Humidity,HourlyPrecipIn,Conditions,Clouds,dailyrainin,SoftwareType,DateUTC
2013-08-29 00:03:00,64.6,64.0,29.98,East,85,1.0,13.0,96,0.00,,,0.00,weatherlink.com 1.10,2013-08-29 04:03:00,
2013-08-29 00:18:00,64.8,64.0,29.98,East,91,3.0,9.0,96,0.00,,,0.00,weatherlink.com 1.10,2013-08-29 04:18:00,
2013-08-29 00:33:00,64.9,64.0,29.98,ESE,108,5.0,10.0,95,0.00,,,0.00,weatherlink.com 1.10,2013-08-29 04:33:00,
2013-08-29 00:49:00,64.9,64.0,29.98,ESE,113,0.0,11.0,95,0.00,,,0.00,weatherlink.com 1.10,2013-08-29 04:49:00,
2013-08-29 01:04:00,65.0,64.0,29.98,SE,126,1.0,5.0,96,0.00,,,0.00,weatherlink.com 1.10,2013-08-29 05:04:00,
2013-08-29 01:19:00,65.2,64.0,29.98,ESE,121,0.0,7.0,95,0.00,,,0.00,weatherlink.com 1.10,2013-08-29 05:19:00,
2013-08-29 01:34:00,65.3,64.0,29.98,SE,127,0.0,7.0,95,0.00,,,0.00,weatherlink.com 1.10,2013-08-29 05:34:00,
2013-08-29 01:49:00,65.4,64.0,29.97,SE,137,0.0,5.0,95,0.00,,,0.00,weatherlink.com 1.10,2013-08-29 05:49:00,
2013-08-29 02:04:00,65.5,64.0,29.97,SE,138,3.0,5.0,95,0.00,,,0.00,weatherlink.com 1.10,2013-08-29 06:04:00,
2013-08-29 02:19:00,65.6,64.0,29.98,SE,138,0.0,3.0,95,0.00,,,0.00,weatherlink.com 1.10,2013-08-29 06:19:00,
2013-08-29 02:34:00,65.8,64.0,29.97,SE,136,0.0,5.0,94,0.00,,,0.00,weatherlink.com 1.10,2013-08-29 06:34:00,
2013-08-29 02:49:00,65.8,64.0,29.97,SE,138,1.0,6.0,94,0.00,,,0.00,weatherlink.com 1.10,2013-08-29 06:49:00,
2013-08-29 03:04:00,65.7,64.0,29.97,SE,138,0.0,4.0,94,0.00,,,0.00,weatherlink.com 1.10,2013-08-29 07:04:00,
2013-08-29 03:19:00,65.5,64.0,29.96,SE,130,0.0,5.0,94,0.00,,,0.00,weatherlink.com 1.10,2013-08-29 07:19:00,
2013-08-29 03:34:00,65.4,64.0,29.97,SE,136,0.0,4.0,95,0.00,,,0.00,weatherlink.com 1.10,2013-08-29 07:34:00,
2013-08-29 03:49:00,65.2,64.0,29.97,SE,126,5.0,6.0,95,0.00,,,0.00,weatherlink.com 1.10,2013-08-29 07:49:00,
2013-08-29 04:05:00,64.8,63.0,29.98,SE,135,4.0,9.0,95,0.00,,,0.00,weatherlink.com 1.10,2013-08-29 08:05:00,
2013-08-29 04:19:00,64.6,64.0,29.99,SE,139,2.0,10.0,96,0.00,,,0.00,weatherlink.com 1.10,2013-08-29 08:19:00,
2013-08-29 04:34:00,64.7,64.0,29.99,SE,136,0.0,8.0,96,0.00,,,0.00,weatherlink.com 1.10,2013-08-29 08:34:00,
2013-08-29 04:49:00,64.5,63.0,30.00,East,101,1.0,14.0,96,0.00,,,0.00,weatherlink.com 1.10,2013-08-29 08:49:00,
2013-08-29 05:04:00,64.5,63.0,30.01,ESE,116,4.0,10.0,96,0.00,,,0.00,weatherlink.com 1.10,2013-08-29 09:04:00,
2013-08-29 05:19:00,64.4,63.0,30.01,ESE,123,8.0,9.0,96,0.00,,,0.00,weatherlink.com 1.10,2013-08-29 09:19:00,
2013-08-29 05:34:00,64.5,63.0,30.01,ESE,114,0.0,9.0,96,0.00,,,0.00,weatherlink.com 1.10,2013-08-29 09:34:00,
2013-08-29 05:49:00,64.6,64.0,30.01,East,86,2.0,9.0,96,0.00,,,0.00,weatherlink.com 1.10,2013-08-29 09:49:00,
2013-08-29 06:04:00,64.8,64.0,30.01,East,84,3.0,8.0,96,0.00,,,0.00,weatherlink.com 1.10,2013-08-29 10:04:00,
2013-08-29 06:19:00,65.0,64.0,30.01,SE,131,2.0,10.0,95,0.00,,,0.00,weatherlink.com 1.10,2013-08-29 10:19:00,
2013-08-29 06:34:00,65.2,64.0,30.01,East,86,3.0,12.0,95,0.00,,,0.00,weatherlink.com 1.10,2013-08-29 10:34:00,
2013-08-29 06:49:00,65.4,64.0,30.02,ESE,105,4.0,9.0,95,0.00,,,0.00,weatherlink.com 1.10,2013-08-29 10:49:00,
2013-08-29 07:04:00,65.6,64.0,30.02,ESE,106,12.0,14.0,94,0.00,,,0.00,weatherlink.com 1.10,2013-08-29 11:04:00,
2013-08-29 07:19:00,65.7,64.0,30.03,East,80,2.0,10.0,95,0.00,,,0.00,weatherlink.com 1.10,2013-08-29 11:19:00,
2013-08-29 07:34:00,66.2,65.0,30.03,ENE,77,0.0,8.0,94,0.00,,,0.00,weatherlink.com 1.10,2013-08-29 11:34:00,
2013-08-29 07:49:00,66.5,65.0,30.03,SE,136,3.0,8.0,93,0.00,,,0.00,weatherlink.com 1.10,2013-08-29 11:49:00,
2013-08-29 08:04:00,66.4,64.0,30.04,East,82,11.0,14.0,93,0.00,,,0.00,weatherlink.com 1.10,2013-08-29 12:04:00,
2013-08-29 08:19:00,66.5,64.0,30.04,SE,140,4.0,13.0,92,0.00,,,0.00,weatherlink.com 1.10,2013-08-29 12:19:00,
2013-08-29 08:34:00,66.8,64.0,30.04,ESE,115,7.0,11.0,91,0.00,,,0.00,weatherlink.com 1.10,2013-08-29 12:34:00,
2013-08-29 08:49:00,67.2,65.0,30.04,NE,41,1.0,11.0,91,0.00,,,0.00,weatherlink.com 1.10,2013-08-29 12:49:00,
2013-08-29 09:04:00,67.0,64.0,30.04,NE,44,8.0,13.0,91,0.00,,,0.00,weatherlink.com 1.10,2013-08-29 13:04:00,
2013-08-29 09:19:00,66.9,64.0,30.05,ENE,57,12.0,12.0,91,0.00,,,0.00,weatherlink.com 1.10,2013-08-29 13:19:00,
2013-08-29 09:34:00,66.4,64.0,30.05,ENE,58,4.0,15.0,90,0.00,,,0.00,weatherlink.com 1.10,2013-08-29 13:34:00,
2013-08-29 09:49:00,66.3,63.0,30.05,NNW,336,2.0,14.0,89,0.00,,,0.00,weatherlink.com 1.10,2013-08-29 13:49:00,
2013-08-29 10:04:00,66.5,63.0,30.05,East,92,6.0,8.0,88,0.00,,,0.00,weatherlink.com 1.10,2013-08-29 14:04:00,
2013-08-29 10:19:00,66.6,63.0,30.06,East,93,0.0,13.0,88,0.00,,,0.00,weatherlink.com 1.10,2013-08-29 14:19:00,
2013-08-29 10:34:00,66.8,63.0,30.07,ESE,106,5.0,15.0,87,0.00,,,0.00,weatherlink.com 1.10,2013-08-29 14:34:00,
2013-08-29 10:49:00,66.2,63.0,30.07,ESE,121,4.0,15.0,88,0.00,,,0.00,weatherlink.com 1.10,2013-08-29 14:49:00,
2013-08-29 11:04:00,66.3,62.0,30.07,ESE,102,7.0,13.0,87,0.00,,,0.00,weatherlink.com 1.10,2013-08-29 15:04:00,
2013-08-29 11:19:00,66.3,62.0,30.07,ESE,115,5.0,13.0,87,0.00,,,0.00,weatherlink.com 1.10,2013-08-29 15:19:00,
2013-08-29 11:34:00,65.9,62.0,30.08,East,96,7.0,15.0,88,0.00,,,0.00,weatherlink.com 1.10,2013-08-29 15:34:00,
2013-08-29 11:50:00,65.7,62.0,30.08,East,86,8.0,15.0,88,0.00,,,0.00,weatherlink.com 1.10,2013-08-29 15:50:00,
2013-08-29 12:05:00,65.0,62.0,30.07,ESE,102,10.0,17.0,90,0.00,,,0.00,weatherlink.com 1.10,2013-08-29 16:05:00,
2013-08-29 12:20:00,64.5,62.0,30.08,ESE,121,4.0,12.0,92,0.00,,,0.00,weatherlink.com 1.10,2013-08-29 16:20:00,
2013-08-29 12:35:00,63.7,62.0,30.08,ESE,116,5.0,13.0,94,0.00,,,0.00,weatherlink.com 1.10,2013-08-29 16:35:00,
2013-08-29 12:50:00,63.2,62.0,30.08,East,86,9.0,17.0,94,0.00,,,0.00,weatherlink.com 1.10,2013-08-29 16:50:00,
2013-08-29 13:05:00,63.3,62.0,30.07,SSE,151,6.0,15.0,94,0.00,,,0.00,weatherlink.com 1.10,2013-08-29 17:05:00,
2013-08-29 13:20:00,63.5,62.0,30.07,SE,143,8.0,14.0,93,0.00,,,0.00,weatherlink.com 1.10,2013-08-29 17:20:00,
2013-08-29 13:35:00,63.8,62.0,30.07,East,88,3.0,17.0,93,0.00,,,0.00,weatherlink.com 1.10,2013-08-29 17:35:00,
2013-08-29 13:50:00,63.7,61.0,30.07,ESE,109,4.0,15.0,92,0.00,,,0.00,weatherlink.com 1.10,2013-08-29 17:50:00,
2013-08-29 14:05:00,64.2,62.0,30.07,SE,136,5.0,14.0,91,0.00,,,0.00,weatherlink.com 1.10,2013-08-29 18:05:00,
2013-08-29 14:20:00,64.2,61.0,30.07,ENE,77,10.0,17.0,90,0.00,,,0.00,weatherlink.com 1.10,2013-08-29 18:20:00,
2013-08-29 14:35:00,64.0,61.0,30.07,SSE,155,4.0,18.0,90,0.00,,,0.00,weatherlink.com 1.10,2013-08-29 18:35:00,
2013-08-29 14:50:00,64.0,61.0,30.07,SE,138,8.0,14.0,90,0.00,,,0.00,weatherlink.com 1.10,2013-08-29 18:50:00,
2013-08-29 15:05:00,63.9,61.0,30.07,ESE,102,7.0,13.0,90,0.00,,,0.00,weatherlink.com 1.10,2013-08-29 19:05:00,
2013-08-29 15:20:00,63.6,61.0,30.07,ESE,117,11.0,17.0,90,0.00,,,0.00,weatherlink.com 1.10,2013-08-29 19:20:00,
2013-08-29 15:35:00,63.4,61.0,30.07,ESE,116,4.0,11.0,91,0.00,,,0.00,weatherlink.com 1.10,2013-08-29 19:35:00,
2013-08-29 15:50:00,63.7,61.0,30.07,East,92,5.0,11.0,90,0.00,,,0.00,weatherlink.com 1.10,2013-08-29 19:50:00,
2013-08-29 16:05:00,63.9,61.0,30.07,ENE,57,5.0,11.0,89,0.00,,,0.00,weatherlink.com 1.10,2013-08-29 20:05:00,
2013-08-29 16:20:00,63.7,60.0,30.07,SE,127,6.0,15.0,88,0.00,,,0.00,weatherlink.com 1.10,2013-08-29 20:20:00,
2013-08-29 16:35:00,63.5,60.0,30.07,East,99,8.0,13.0,88,0.00,,,0.00,weatherlink.com 1.10,2013-08-29 20:35:00,
2013-08-29 16:50:00,63.5,60.0,30.08,East,81,8.0,15.0,87,0.00,,,0.00,weatherlink.com 1.10,2013-08-29 20:50:00,
2013-08-29 17:05:00,63.5,60.0,30.08,SE,131,6.0,14.0,87,0.00,,,0.00,weatherlink.com 1.10,2013-08-29 21:05:00,
2013-08-29 17:20:00,63.3,59.0,30.08,SE,134,5.0,14.0,87,0.00,,,0.00,weatherlink.com 1.10,2013-08-29 21:20:00,
2013-08-29 17:35:00,63.0,59.0,30.08,SSE,157,5.0,16.0,86,0.00,,,0.00,weatherlink.com 1.10,2013-08-29 21:35:00,
2013-08-29 17:50:00,63.1,59.0,30.08,ENE,68,7.0,17.0,86,0.00,,,0.00,weatherlink.com 1.10,2013-08-29 21:50:00,
2013-08-29 18:05:00,63.2,59.0,30.08,NNE,32,12.0,14.0,85,0.00,,,0.00,weatherlink.com 1.10,2013-08-29 22:05:00,
2013-08-29 18:20:00,63.1,59.0,30.08,SE,125,10.0,12.0,85,0.00,,,0.00,weatherlink.com 1.10,2013-08-29 22:20:00,
2013-08-29 18:35:00,62.9,58.0,30.08,SE,129,7.0,12.0,84,0.00,,,0.00,weatherlink.com 1.10,2013-08-29 22:35:00,
2013-08-29 18:50:00,63.0,59.0,30.07,SE,126,4.0,13.0,85,0.00,,,0.00,weatherlink.com 1.10,2013-08-29 22:50:00,
2013-08-29 19:05:00,62.9,58.0,30.07,SE,124,4.0,9.0,85,0.00,,,0.00,weatherlink.com 1.10,2013-08-29 23:05:00,
2013-08-29 19:20:00,62.9,58.0,30.07,ESE,114,0.0,7.0,85,0.00,,,0.00,weatherlink.com 1.10,2013-08-29 23:20:00,
2013-08-29 19:35:00,63.0,59.0,30.07,ESE,122,4.0,6.0,85,0.00,,,0.00,weatherlink.com 1.10,2013-08-29 23:35:00,
2013-08-29 19:50:00,62.8,59.0,30.07,SSE,148,2.0,8.0,86,0.00,,,0.00,weatherlink.com 1.10,2013-08-29 23:50:00,
2013-08-29 20:05:00,62.9,59.0,30.07,SE,145,0.0,8.0,86,0.00,,,0.00,weatherlink.com 1.10,2013-08-30 00:05:00,
2013-08-29 20:20:00,63.0,59.0,30.07,SSE,147,3.0,7.0,86,0.00,,,0.00,weatherlink.com 1.10,2013-08-30 00:20:00,
2013-08-29 20:35:00,63.1,59.0,30.07,SSE,147,0.0,7.0,86,0.00,,,0.00,weatherlink.com 1.10,2013-08-30 00:35:00,
2013-08-29 20:50:00,62.9,59.0,30.07,SSE,147,0.0,4.0,87,0.00,,,0.00,weatherlink.com 1.10,2013-08-30 00:50:00,
2013-08-29 21:05:00,63.1,59.0,30.07,SE,144,1.0,6.0,85,0.00,,,0.00,weatherlink.com 1.10,2013-08-30 01:05:00,
2013-08-29 21:20:00,63.2,59.0,30.07,SE,132,0.0,5.0,85,0.00,,,0.00,weatherlink.com 1.10,2013-08-30 01:20:00,
2013-08-29 21:35:00,63.4,59.0,30.07,SE,132,0.0,4.0,84,0.00,,,0.00,weatherlink.com 1.10,2013-08-30 01:35:00,
2013-08-29 21:50:00,63.6,59.0,30.08,North,5,2.0,7.0,84,0.00,,,0.00,weatherlink.com 1.10,2013-08-30 01:50:00,
2013-08-29 22:05:00,63.7,59.0,30.07,NNE,26,4.0,5.0,84,0.00,,,0.00,weatherlink.com 1.10,2013-08-30 02:05:00,
2013-08-29 22:20:00,63.7,59.0,30.07,NNE,15,3.0,7.0,85,0.00,,,0.00,weatherlink.com 1.10,2013-08-30 02:20:00,
2013-08-29 22:35:00,63.6,59.0,30.07,North,355,0.0,8.0,85,0.00,,,0.00,weatherlink.com 1.10,2013-08-30 02:35:00,
2013-08-29 22:50:00,63.3,59.0,30.06,NNE,32,1.0,7.0,86,0.00,,,0.00,weatherlink.com 1.10,2013-08-30 02:50:00,
2013-08-29 23:05:00,63.3,59.0,30.05,NNE,15,1.0,6.0,86,0.00,,,0.00,weatherlink.com 1.10,2013-08-30 03:05:00,
2013-08-29 23:20:00,63.1,59.0,30.04,NNE,19,0.0,8.0,86,0.00,,,0.00,weatherlink.com 1.10,2013-08-30 03:20:00,
2013-08-29 23:35:00,63.2,59.0,30.04,NNE,19,2.0,7.0,85,0.00,,,0.00,weatherlink.com 1.10,2013-08-30 03:35:00,
2013-08-29 23:50:00,63.3,59.0,30.04,NNE,22,1.0,5.0,85,0.00,,,0.00,weatherlink.com 1.10,2013-08-30 03:50:00,